Year,Month,Day,Hour,Minute,Value (Times are PST for windspeed in km/hr)
2006,05,07,00,00,1.80
2006,05,07,00,01,1.10
2006,05,07,00,02,3.10
2006,05,07,00,03,3.70
2006,05,07,00,04,1.20
2006,05,07,00,05,1.80
2006,05,07,00,06,4.60
2006,05,07,00,07,2.50
2006,05,07,00,08,2.30
2006,05,07,00,09,0.10
2006,05,07,00,10,0.40
2006,05,07,00,11,4.20
2006,05,07,00,12,3.10
2006,05,07,00,13,2.70
2006,05,07,00,14,1.70
2006,05,07,00,15,1.40
2006,05,07,00,16,2.30
2006,05,07,00,17,0.60
2006,05,07,00,18,5.10
2006,05,07,00,19,0.30
2006,05,07,00,20,2.90
2006,05,07,00,21,2.60
2006,05,07,00,22,2.00
2006,05,07,00,23,1.50
2006,05,07,00,24,0.30
2006,05,07,00,25,1.30
2006,05,07,00,26,3.70
2006,05,07,00,27,7.50
2006,05,07,00,28,4.40
2006,05,07,00,29,1.00
2006,05,07,00,30,2.30
2006,05,07,00,31,7.60
2006,05,07,00,32,0.50
2006,05,07,00,33,2.10
2006,05,07,00,34,2.50
2006,05,07,00,35,0.10
2006,05,07,00,36,6.20
2006,05,07,00,37,2.00
2006,05,07,00,38,4.80
2006,05,07,00,39,2.00
2006,05,07,00,40,0.80
2006,05,07,00,41,0.30
2006,05,07,00,42,1.20
2006,05,07,00,43,0.90
2006,05,07,00,44,0.80
2006,05,07,00,45,0.50
2006,05,07,00,46,1.70
2006,05,07,00,47,0.20
2006,05,07,00,48,0.60
2006,05,07,00,49,0.00
2006,05,07,00,50,0.00
2006,05,07,00,51,0.00
2006,05,07,00,52,0.30
2006,05,07,00,53,0.90
2006,05,07,00,54,0.80
2006,05,07,00,55,2.00
2006,05,07,00,56,0.00
2006,05,07,00,57,1.30
2006,05,07,00,58,1.10
2006,05,07,00,59,0.00
2006,05,07,01,00,0.00
2006,05,07,01,01,0.00
2006,05,07,01,02,0.00
2006,05,07,01,03,0.00
2006,05,07,01,04,0.00
2006,05,07,01,05,0.00
2006,05,07,01,06,0.00
2006,05,07,01,07,0.00
2006,05,07,01,08,0.00
2006,05,07,01,09,0.00
2006,05,07,01,10,0.00
2006,05,07,01,11,0.00
2006,05,07,01,12,0.00
2006,05,07,01,13,0.00
2006,05,07,01,14,0.00
2006,05,07,01,15,0.00
2006,05,07,01,16,0.00
2006,05,07,01,17,0.00
2006,05,07,01,18,0.00
2006,05,07,01,19,0.00
2006,05,07,01,20,0.00
2006,05,07,01,21,0.00
2006,05,07,01,22,0.20
2006,05,07,01,23,0.00
2006,05,07,01,24,0.00
2006,05,07,01,25,0.00
2006,05,07,01,26,0.00
2006,05,07,01,27,0.00
2006,05,07,01,28,0.00
2006,05,07,01,29,0.00
2006,05,07,01,30,0.00
2006,05,07,01,31,0.00
2006,05,07,01,32,0.00
2006,05,07,01,33,0.00
2006,05,07,01,34,0.30
2006,05,07,01,35,0.00
2006,05,07,01,36,0.00
2006,05,07,01,37,0.00
2006,05,07,01,38,0.00
2006,05,07,01,39,0.00
2006,05,07,01,40,0.00
2006,05,07,01,41,0.00
2006,05,07,01,42,0.00
2006,05,07,01,43,0.00
2006,05,07,01,44,0.00
2006,05,07,01,45,0.00
2006,05,07,01,46,0.00
2006,05,07,01,47,0.00
2006,05,07,01,48,0.00
2006,05,07,01,49,0.00
2006,05,07,01,50,0.00
2006,05,07,01,51,0.00
2006,05,07,01,52,0.00
2006,05,07,01,53,0.00
2006,05,07,01,54,0.00
2006,05,07,01,55,0.00
2006,05,07,01,56,0.00
2006,05,07,01,57,0.00
2006,05,07,01,58,0.00
2006,05,07,01,59,0.00
2006,05,07,02,00,0.00
2006,05,07,02,01,0.00
2006,05,07,02,02,0.00
2006,05,07,02,03,0.00
2006,05,07,02,04,0.00
2006,05,07,02,05,0.00
2006,05,07,02,06,0.00
2006,05,07,02,07,0.00
2006,05,07,02,08,0.80
2006,05,07,02,09,0.00
2006,05,07,02,10,0.00
2006,05,07,02,11,0.00
2006,05,07,02,12,0.00
2006,05,07,02,13,0.00
2006,05,07,02,14,0.00
2006,05,07,02,15,0.00
2006,05,07,02,16,0.00
2006,05,07,02,17,0.00
2006,05,07,02,18,0.00
2006,05,07,02,19,0.00
2006,05,07,02,20,0.00
2006,05,07,02,21,0.00
2006,05,07,02,22,0.60
2006,05,07,02,23,0.00
2006,05,07,02,24,0.00
2006,05,07,02,25,0.00
2006,05,07,02,26,0.00
2006,05,07,02,27,0.00
2006,05,07,02,28,0.00
2006,05,07,02,29,0.00
2006,05,07,02,30,0.00
2006,05,07,02,31,0.00
2006,05,07,02,32,0.00
2006,05,07,02,33,0.00
2006,05,07,02,34,0.00
2006,05,07,02,35,0.00
2006,05,07,02,36,0.00
2006,05,07,02,37,0.00
2006,05,07,02,38,0.00
2006,05,07,02,39,0.00
2006,05,07,02,40,0.00
2006,05,07,02,41,0.00
2006,05,07,02,42,0.00
2006,05,07,02,43,0.00
2006,05,07,02,44,0.00
2006,05,07,02,45,0.00
2006,05,07,02,46,0.00
2006,05,07,02,47,0.00
2006,05,07,02,48,0.00
2006,05,07,02,49,0.00
2006,05,07,02,50,0.00
2006,05,07,02,51,0.00
2006,05,07,02,52,0.00
2006,05,07,02,53,0.00
2006,05,07,02,54,0.00
2006,05,07,02,55,0.00
2006,05,07,02,56,0.00
2006,05,07,02,57,0.00
2006,05,07,02,58,0.00
2006,05,07,02,59,0.00
2006,05,07,03,00,0.00
2006,05,07,03,01,0.00
2006,05,07,03,02,0.00
2006,05,07,03,03,0.00
2006,05,07,07,34,0.00
2006,05,07,07,35,0.00
2006,05,07,07,36,0.00
2006,05,07,07,37,1.10
2006,05,07,07,38,1.40
2006,05,07,07,39,3.80
2006,05,07,07,40,0.50
2006,05,07,07,41,0.00
2006,05,07,07,42,0.60
2006,05,07,07,43,0.20
2006,05,07,07,44,0.00
2006,05,07,07,45,0.00
2006,05,07,07,46,0.20
2006,05,07,07,47,3.80
2006,05,07,07,48,0.30
2006,05,07,07,49,0.00
2006,05,07,07,50,0.00
2006,05,07,07,51,0.00
2006,05,07,07,52,0.00
2006,05,07,07,53,0.80
2006,05,07,07,54,0.00
2006,05,07,07,55,0.00
2006,05,07,07,56,1.90
2006,05,07,07,57,0.00
2006,05,07,07,58,0.00
2006,05,07,07,59,0.00
2006,05,07,08,00,0.00
2006,05,07,08,01,0.00
2006,05,07,08,02,0.40
2006,05,07,08,03,0.00
2006,05,07,08,04,0.00
2006,05,07,08,05,0.00
2006,05,07,08,06,0.00
2006,05,07,08,07,0.20
2006,05,07,08,08,0.00
2006,05,07,08,09,1.30
2006,05,07,08,10,0.80
2006,05,07,08,11,0.00
2006,05,07,08,12,0.00
2006,05,07,08,13,0.00
2006,05,07,08,14,0.00
2006,05,07,08,15,0.00
2006,05,07,08,16,0.20
2006,05,07,08,17,0.20
2006,05,07,08,18,0.00
2006,05,07,08,19,0.00
2006,05,07,08,20,0.00
2006,05,07,08,21,0.00
2006,05,07,08,22,0.30
2006,05,07,08,23,0.50
2006,05,07,08,24,0.00
2006,05,07,08,25,0.00
2006,05,07,08,26,1.20
2006,05,07,08,27,0.00
2006,05,07,08,28,0.10
2006,05,07,08,29,0.00
2006,05,07,08,30,0.70
2006,05,07,08,31,0.00
2006,05,07,08,32,0.00
2006,05,07,08,33,0.10
2006,05,07,08,34,0.80
2006,05,07,08,35,0.00
2006,05,07,08,36,0.00
2006,05,07,08,37,0.00
2006,05,07,08,38,0.00
2006,05,07,08,39,0.10
2006,05,07,08,40,0.00
2006,05,07,08,41,0.00
2006,05,07,08,42,0.00
2006,05,07,08,43,0.00
2006,05,07,08,44,0.00
2006,05,07,08,45,0.00
2006,05,07,08,46,0.00
2006,05,07,08,47,0.00
2006,05,07,08,48,0.00
2006,05,07,08,49,0.00
2006,05,07,08,50,0.00
2006,05,07,08,51,0.00
2006,05,07,08,52,0.60
2006,05,07,08,53,0.00
2006,05,07,08,54,0.20
2006,05,07,08,55,1.30
2006,05,07,08,56,0.00
2006,05,07,08,57,0.00
2006,05,07,08,58,0.20
2006,05,07,08,59,0.00
2006,05,07,09,00,0.00
2006,05,07,09,01,0.00
2006,05,07,09,02,0.00
2006,05,07,09,03,0.00
2006,05,07,09,04,0.00
2006,05,07,09,05,0.00
2006,05,07,09,06,0.00
2006,05,07,09,07,0.00
2006,05,07,09,08,0.00
2006,05,07,09,09,0.00
2006,05,07,09,10,0.00
2006,05,07,09,11,0.00
2006,05,07,09,12,0.00
2006,05,07,09,13,0.00
2006,05,07,09,14,0.00
2006,05,07,09,15,0.10
2006,05,07,09,16,0.00
2006,05,07,09,17,0.00
2006,05,07,09,18,0.00
2006,05,07,09,19,0.00
2006,05,07,09,20,0.00
2006,05,07,09,21,0.70
2006,05,07,09,22,2.00
2006,05,07,09,23,0.30
2006,05,07,09,24,0.00
2006,05,07,09,25,0.00
2006,05,07,09,26,0.00
2006,05,07,09,27,0.10
2006,05,07,09,28,0.00
2006,05,07,09,29,0.00
2006,05,07,09,30,1.20
2006,05,07,09,31,0.00
2006,05,07,09,32,0.00
2006,05,07,09,33,0.00
2006,05,07,09,34,0.00
2006,05,07,09,35,0.00
2006,05,07,09,36,0.00
2006,05,07,09,37,0.30
2006,05,07,09,38,0.00
2006,05,07,09,39,0.00
2006,05,07,09,40,0.00
2006,05,07,09,41,0.00
2006,05,07,09,42,0.90
2006,05,07,09,43,0.10
2006,05,07,09,44,1.00
2006,05,07,09,45,0.00
2006,05,07,09,46,0.00
2006,05,07,09,47,0.00
2006,05,07,09,48,0.00
2006,05,07,09,49,0.00
2006,05,07,09,50,0.00
2006,05,07,09,51,0.00
2006,05,07,09,52,0.20
2006,05,07,09,53,1.70
2006,05,07,09,54,0.00
2006,05,07,09,55,0.70
2006,05,07,09,56,0.20
2006,05,07,09,57,0.60
2006,05,07,09,58,0.60
2006,05,07,09,59,0.20
2006,05,07,10,00,1.40
2006,05,07,10,01,0.20
2006,05,07,10,02,0.00
2006,05,07,10,03,0.90
2006,05,07,10,04,0.10
2006,05,07,10,05,0.00
2006,05,07,10,06,1.10
2006,05,07,10,07,0.10
2006,05,07,10,08,0.00
2006,05,07,10,09,0.10
2006,05,07,10,10,0.30
2006,05,07,10,11,0.00
2006,05,07,10,12,0.20
2006,05,07,10,13,0.80
2006,05,07,10,14,0.00
2006,05,07,10,15,0.60
2006,05,07,10,16,2.50
2006,05,07,10,17,2.20
2006,05,07,10,18,0.60
2006,05,07,10,19,0.10
2006,05,07,10,20,0.00
2006,05,07,10,21,0.00
2006,05,07,10,22,1.40
2006,05,07,10,23,1.60
2006,05,07,10,24,0.50
2006,05,07,10,25,1.90
2006,05,07,10,26,0.30
2006,05,07,10,27,0.40
2006,05,07,10,28,0.60
2006,05,07,10,29,0.30
2006,05,07,10,30,0.60
2006,05,07,10,31,1.00
2006,05,07,10,32,1.00
2006,05,07,10,33,0.60
2006,05,07,10,34,0.10
2006,05,07,10,35,0.00
2006,05,07,10,36,0.00
2006,05,07,10,37,1.40
2006,05,07,10,38,0.00
2006,05,07,10,39,1.00
2006,05,07,10,40,5.50
2006,05,07,10,41,1.00
2006,05,07,10,42,1.10
2006,05,07,10,43,2.30
2006,05,07,10,44,0.90
2006,05,07,10,45,0.70
2006,05,07,10,46,4.50
2006,05,07,10,47,1.00
2006,05,07,10,48,2.20
2006,05,07,10,49,0.00
2006,05,07,10,50,0.20
2006,05,07,10,51,0.70
2006,05,07,10,52,2.10
2006,05,07,10,53,2.20
2006,05,07,10,54,1.00
2006,05,07,10,55,0.10
2006,05,07,10,56,1.80
2006,05,07,10,57,7.30
2006,05,07,10,58,2.80
2006,05,07,10,59,2.60
2006,05,07,11,00,0.20
2006,05,07,11,01,0.70
2006,05,07,11,02,0.00
2006,05,07,11,03,0.00
2006,05,07,11,04,0.00
2006,05,07,11,05,0.00
2006,05,07,11,06,1.80
2006,05,07,11,07,0.00
2006,05,07,11,08,0.00
2006,05,07,11,09,0.00
2006,05,07,11,10,1.90
2006,05,07,11,11,8.50
2006,05,07,11,12,8.10
2006,05,07,11,13,8.10
2006,05,07,11,14,2.90
2006,05,07,11,15,0.00
2006,05,07,11,16,0.30
2006,05,07,11,17,0.90
2006,05,07,11,18,3.10
2006,05,07,11,19,2.70
2006,05,07,11,20,0.80
2006,05,07,11,21,1.50
2006,05,07,11,22,0.30
2006,05,07,11,23,3.20
2006,05,07,11,24,0.80
2006,05,07,11,25,1.80
2006,05,07,11,26,2.90
2006,05,07,11,27,0.30
2006,05,07,11,28,7.00
2006,05,07,11,29,4.70
2006,05,07,11,30,9.10
2006,05,07,11,31,7.30
2006,05,07,11,32,5.10
2006,05,07,11,33,6.40
2006,05,07,11,34,6.60
2006,05,07,11,35,4.10
2006,05,07,11,36,4.00
2006,05,07,11,37,2.10
2006,05,07,11,38,0.00
2006,05,07,11,39,0.00
2006,05,07,11,40,0.00
2006,05,07,11,41,4.70
2006,05,07,11,42,1.60
2006,05,07,11,43,1.60
2006,05,07,11,44,2.50
2006,05,07,11,45,2.80
2006,05,07,11,46,1.60
2006,05,07,11,47,1.60
2006,05,07,11,48,1.60
2006,05,07,11,49,3.40
2006,05,07,11,50,5.10
2006,05,07,11,51,3.50
2006,05,07,11,52,0.40
2006,05,07,11,53,0.00
2006,05,07,11,54,3.80
2006,05,07,11,55,5.80
2006,05,07,11,56,3.20
2006,05,07,11,57,2.60
2006,05,07,11,58,1.70
2006,05,07,11,59,0.00
2006,05,07,12,00,0.00
2006,05,07,12,01,0.00
2006,05,07,12,02,0.00
2006,05,07,12,03,2.40
2006,05,07,12,04,8.50
2006,05,07,12,05,1.60
2006,05,07,12,06,0.00
2006,05,07,12,07,1.80
2006,05,07,12,08,0.50
2006,05,07,12,09,5.80
2006,05,07,12,10,14.20
2006,05,07,12,11,5.00
2006,05,07,12,12,7.10
2006,05,07,12,13,4.40
2006,05,07,12,14,6.70
2006,05,07,12,15,3.90
2006,05,07,12,16,0.00
2006,05,07,12,17,2.20
2006,05,07,12,18,6.10
2006,05,07,12,19,6.40
2006,05,07,12,20,8.40
2006,05,07,12,21,1.10
2006,05,07,12,22,7.70
2006,05,07,12,23,6.90
2006,05,07,12,24,5.60
2006,05,07,12,25,0.00
2006,05,07,12,26,0.00
2006,05,07,12,27,0.00
2006,05,07,12,28,9.20
2006,05,07,12,29,14.20
2006,05,07,12,30,4.20
2006,05,07,12,31,0.10
2006,05,07,12,32,0.00
2006,05,07,12,33,9.50
2006,05,07,12,34,4.60
2006,05,07,12,35,5.90
2006,05,07,12,36,4.70
2006,05,07,12,37,16.20
2006,05,07,12,38,12.20
2006,05,07,12,39,15.00
2006,05,07,12,40,4.10
2006,05,07,12,41,4.80
2006,05,07,12,42,0.00
2006,05,07,12,43,0.00
2006,05,07,12,44,5.10
2006,05,07,12,45,12.90
2006,05,07,12,46,12.90
2006,05,07,12,47,14.00
2006,05,07,12,48,6.40
2006,05,07,12,49,6.00
2006,05,07,12,50,17.90
2006,05,07,12,51,19.30
2006,05,07,12,52,17.90
2006,05,07,12,53,11.80
2006,05,07,12,54,12.90
2006,05,07,12,55,10.30
2006,05,07,12,56,8.20
2006,05,07,12,57,20.80
2006,05,07,12,58,19.20
2006,05,07,12,59,10.90
2006,05,07,13,00,5.90
2006,05,07,13,01,5.50
2006,05,07,13,02,11.30
2006,05,07,13,03,10.90
2006,05,07,13,04,1.50
2006,05,07,13,05,2.80
2006,05,07,13,06,16.20
2006,05,07,13,07,5.60
2006,05,07,13,08,0.00
2006,05,07,13,09,9.30
2006,05,07,13,10,8.10
2006,05,07,13,11,9.70
2006,05,07,13,12,8.40
2006,05,07,13,13,1.10
2006,05,07,13,14,8.60
2006,05,07,13,15,12.50
2006,05,07,13,16,22.80
2006,05,07,13,17,14.10
2006,05,07,13,18,12.70
2006,05,07,13,19,6.40
2006,05,07,13,20,15.20
2006,05,07,13,21,6.20
2006,05,07,13,22,5.60
2006,05,07,13,23,0.00
2006,05,07,13,24,4.60
2006,05,07,13,25,3.20
2006,05,07,13,26,8.30
2006,05,07,13,27,9.30
2006,05,07,13,28,13.40
2006,05,07,13,29,9.40
2006,05,07,13,30,3.20
2006,05,07,13,31,1.90
2006,05,07,13,32,3.60
2006,05,07,13,33,4.80
2006,05,07,13,34,4.80
2006,05,07,13,35,3.90
2006,05,07,13,36,1.90
2006,05,07,13,37,4.80
2006,05,07,13,38,3.60
2006,05,07,13,39,3.20
2006,05,07,13,40,3.20
2006,05,07,13,41,4.20
2006,05,07,13,42,16.20
2006,05,07,13,43,16.10
2006,05,07,13,44,12.70
2006,05,07,13,45,8.10
2006,05,07,13,46,12.90
2006,05,07,13,47,8.50
2006,05,07,13,48,4.80
2006,05,07,13,49,4.80
2006,05,07,13,50,4.80
2006,05,07,13,51,4.80
2006,05,07,13,52,6.40
2006,05,07,13,53,12.60
2006,05,07,13,54,12.90
2006,05,07,13,55,15.50
2006,05,07,13,56,19.30
2006,05,07,13,57,19.30
2006,05,07,13,58,19.30
2006,05,07,13,59,16.00
2006,05,07,14,00,9.90
2006,05,07,14,01,9.60
2006,05,07,14,02,7.60
2006,05,07,14,03,9.60
2006,05,07,14,04,16.10
2006,05,07,14,05,16.10
2006,05,07,14,06,14.40
2006,05,07,14,07,10.60
2006,05,07,14,08,1.60
2006,05,07,14,09,1.60
2006,05,07,14,10,9.60
2006,05,07,14,11,15.50
2006,05,07,14,12,16.10
2006,05,07,14,13,16.10
2006,05,07,14,14,16.10
2006,05,07,14,15,16.10
2006,05,07,14,16,12.70
2006,05,07,14,17,11.30
2006,05,07,14,18,16.80
2006,05,07,14,19,19.50
2006,05,07,14,20,17.70
2006,05,07,14,21,19.30
2006,05,07,14,22,23.10
2006,05,07,14,23,16.30
2006,05,07,14,24,7.50
2006,05,07,14,25,4.80
2006,05,07,14,26,4.80
2006,05,07,14,27,12.90
2006,05,07,14,28,19.30
2006,05,07,14,29,19.30
2006,05,07,14,30,19.30
2006,05,07,14,31,19.30
2006,05,07,14,32,19.30
2006,05,07,14,33,16.50
2006,05,07,14,34,16.10
2006,05,07,14,35,16.10
2006,05,07,14,36,16.10
2006,05,07,14,37,16.10
2006,05,07,14,38,16.10
2006,05,07,14,39,16.10
2006,05,07,14,40,16.10
2006,05,07,14,41,17.80
2006,05,07,14,42,20.90
2006,05,07,14,43,20.90
2006,05,07,14,44,20.90
2006,05,07,14,45,20.20
2006,05,07,14,46,16.10
2006,05,07,14,47,16.10
2006,05,07,14,48,16.10
2006,05,07,14,49,16.10
2006,05,07,14,50,16.10
2006,05,07,14,51,16.10
2006,05,07,14,52,11.20
2006,05,07,14,53,8.10
2006,05,07,14,54,8.10
2006,05,07,14,55,13.00
2006,05,07,14,56,5.70
2006,05,07,14,57,14.90
2006,05,07,14,58,25.70
2006,05,07,14,59,25.70
2006,05,07,15,00,25.70
2006,05,07,15,01,26.00
2006,05,07,15,02,27.40
2006,05,07,15,03,18.60
2006,05,07,15,04,9.60
2006,05,07,15,05,10.70
2006,05,07,15,06,13.60
2006,05,07,15,07,11.30
2006,05,07,15,08,8.90
2006,05,07,15,09,5.50
2006,05,07,15,10,10.30
2006,05,07,15,11,13.20
2006,05,07,15,12,14.80
2006,05,07,15,13,12.90
2006,05,07,15,14,12.30
2006,05,07,15,15,13.10
2006,05,07,15,16,16.10
2006,05,07,15,17,18.30
2006,05,07,15,18,17.70
2006,05,07,15,19,14.70
2006,05,07,15,20,4.70
2006,05,07,15,21,0.00
2006,05,07,15,22,15.80
2006,05,07,15,23,17.70
2006,05,07,15,24,19.30
2006,05,07,15,25,13.60
2006,05,07,15,26,5.20
2006,05,07,15,27,8.70
2006,05,07,15,28,8.10
2006,05,07,15,29,11.60
2006,05,07,15,30,4.80
2006,05,07,15,31,4.80
2006,05,07,15,32,5.20
2006,05,07,15,33,5.20
2006,05,07,15,34,4.80
2006,05,07,15,35,3.20
2006,05,07,15,36,0.20
2006,05,07,15,37,10.80
2006,05,07,15,38,20.90
2006,05,07,15,39,13.00
2006,05,07,15,40,1.20
2006,05,07,15,41,1.60
2006,05,07,15,42,1.60
2006,05,07,15,43,8.00
2006,05,07,15,44,12.60
2006,05,07,15,45,6.90
2006,05,07,15,46,12.80
2006,05,07,15,47,12.90
2006,05,07,15,48,11.70
2006,05,07,15,49,4.50
2006,05,07,15,50,3.20
2006,05,07,15,51,10.90
2006,05,07,15,52,4.50
2006,05,07,15,53,3.20
2006,05,07,15,54,8.80
2006,05,07,15,55,4.80
2006,05,07,15,56,4.80
2006,05,07,15,57,1.60
2006,05,07,15,58,1.00
2006,05,07,15,59,1.60
2006,05,07,16,00,1.60
2006,05,07,16,01,1.60
2006,05,07,16,02,10.80
2006,05,07,16,03,8.90
2006,05,07,16,04,12.20
2006,05,07,16,05,18.90
2006,05,07,16,06,6.90
2006,05,07,16,07,2.00
2006,05,07,16,08,3.00
2006,05,07,16,09,3.20
2006,05,07,16,10,12.90
2006,05,07,16,11,7.90
2006,05,07,16,12,3.20
2006,05,07,16,13,3.20
2006,05,07,16,14,3.00
2006,05,07,16,15,3.10
2006,05,07,16,16,9.60
2006,05,07,16,17,13.50
2006,05,07,16,18,7.30
2006,05,07,16,19,8.50
2006,05,07,16,20,16.30
2006,05,07,16,21,12.30
2006,05,07,16,22,1.20
2006,05,07,16,23,8.70
2006,05,07,16,24,2.70
2006,05,07,16,25,1.60
2006,05,07,16,26,2.20
2006,05,07,16,27,14.50
2006,05,07,16,28,12.40
2006,05,07,16,29,3.10
2006,05,07,16,30,3.80
2006,05,07,16,31,4.80
2006,05,07,16,32,4.30
2006,05,07,16,33,3.20
2006,05,07,16,34,2.90
2006,05,07,16,35,1.90
2006,05,07,16,36,3.20
2006,05,07,16,37,4.10
2006,05,07,16,38,11.30
2006,05,07,16,39,11.30
2006,05,07,16,40,11.00
2006,05,07,16,41,9.70
2006,05,07,16,42,6.50
2006,05,07,16,43,5.10
2006,05,07,16,44,4.40
2006,05,07,16,45,0.00
2006,05,07,16,46,1.10
2006,05,07,16,47,5.90
2006,05,07,16,48,19.40
2006,05,07,16,49,7.50
2006,05,07,16,50,10.80
2006,05,07,16,51,18.90
2006,05,07,16,52,14.50
2006,05,07,16,53,26.80
2006,05,07,16,54,20.10
2006,05,07,16,55,5.80
2006,05,07,16,56,0.00
2006,05,07,16,57,0.00
2006,05,07,16,58,2.70
2006,05,07,16,59,1.60
2006,05,07,17,00,3.90
2006,05,07,17,01,13.90
2006,05,07,17,02,10.10
2006,05,07,17,03,9.70
2006,05,07,17,04,8.10
2006,05,07,17,05,8.80
2006,05,07,17,06,12.30
2006,05,07,17,07,10.20
2006,05,07,17,08,11.90
2006,05,07,17,09,3.00
2006,05,07,17,10,2.50
2006,05,07,17,11,5.70
2006,05,07,17,12,9.40
2006,05,07,17,13,11.30
2006,05,07,17,14,11.30
2006,05,07,17,15,9.80
2006,05,07,17,16,4.80
2006,05,07,17,17,2.50
2006,05,07,17,18,4.60
2006,05,07,17,19,5.20
2006,05,07,17,20,4.80
2006,05,07,17,21,7.50
2006,05,07,17,22,1.00
2006,05,07,17,23,9.50
2006,05,07,17,24,12.90
2006,05,07,17,25,12.90
2006,05,07,17,26,10.70
2006,05,07,17,27,17.40
2006,05,07,17,28,6.50
2006,05,07,17,29,1.40
2006,05,07,17,30,10.10
2006,05,07,17,31,5.20
2006,05,07,17,32,2.50
2006,05,07,17,33,3.90
2006,05,07,17,34,11.90
2006,05,07,17,35,5.30
2006,05,07,17,36,6.80
2006,05,07,17,37,7.60
2006,05,07,17,38,0.00
2006,05,07,17,39,0.00
2006,05,07,17,40,5.60
2006,05,07,17,41,3.40
2006,05,07,17,42,3.20
2006,05,07,17,43,5.30
2006,05,07,17,44,6.40
2006,05,07,17,45,1.30
2006,05,07,17,46,0.00
2006,05,07,17,47,0.00
2006,05,07,17,48,0.00
2006,05,07,17,49,11.60
2006,05,07,17,50,13.10
2006,05,07,17,51,3.40
2006,05,07,17,52,5.50
2006,05,07,17,53,4.90
2006,05,07,17,54,12.60
2006,05,07,17,55,7.00
2006,05,07,17,56,4.80
2006,05,07,17,57,7.80
2006,05,07,17,58,0.20
2006,05,07,17,59,9.70
2006,05,07,18,00,13.80
2006,05,07,18,01,2.90
2006,05,07,18,02,4.50
2006,05,07,18,03,5.40
2006,05,07,18,04,4.80
2006,05,07,18,05,3.20
2006,05,07,18,06,0.90
2006,05,07,18,07,1.60
2006,05,07,18,08,1.70
2006,05,07,18,09,1.50
2006,05,07,18,10,0.50
2006,05,07,18,11,6.30
2006,05,07,18,12,2.80
2006,05,07,18,13,6.40
2006,05,07,18,14,8.30
2006,05,07,18,15,8.00
2006,05,07,18,16,7.40
2006,05,07,18,17,2.10
2006,05,07,18,18,6.10
2006,05,07,18,19,10.70
2006,05,07,18,20,10.70
2006,05,07,18,21,1.10
2006,05,07,18,22,0.00
2006,05,07,18,23,0.40
2006,05,07,18,24,3.80
2006,05,07,18,25,10.00
2006,05,07,18,26,3.80
2006,05,07,18,27,1.30
2006,05,07,18,28,7.80
2006,05,07,18,29,7.70
2006,05,07,18,30,4.80
2006,05,07,18,31,4.80
2006,05,07,18,32,5.00
2006,05,07,18,33,15.50
2006,05,07,18,34,5.70
2006,05,07,18,35,4.80
2006,05,07,18,36,5.00
2006,05,07,18,37,15.30
2006,05,07,18,38,3.00
2006,05,07,18,39,6.00
2006,05,07,18,40,8.10
2006,05,07,18,41,8.10
2006,05,07,18,42,0.80
2006,05,07,18,43,0.00
2006,05,07,18,44,0.00
2006,05,07,18,45,0.30
2006,05,07,18,46,2.30
2006,05,07,18,47,2.90
2006,05,07,18,48,6.60
2006,05,07,18,49,5.40
2006,05,07,18,50,3.10
2006,05,07,18,51,5.50
2006,05,07,18,52,4.50
2006,05,07,18,53,6.40
2006,05,07,18,54,22.30
2006,05,07,18,55,16.00
2006,05,07,18,56,4.30
2006,05,07,18,57,0.20
2006,05,07,18,58,1.10
2006,05,07,18,59,0.20
2006,05,07,19,00,2.90
2006,05,07,19,01,4.20
2006,05,07,19,02,1.80
2006,05,07,19,03,10.80
2006,05,07,19,04,6.80
2006,05,07,19,05,3.60
2006,05,07,19,06,5.10
2006,05,07,19,07,5.80
2006,05,07,19,08,9.00
2006,05,07,19,09,3.40
2006,05,07,19,10,5.60
2006,05,07,19,11,3.90
2006,05,07,19,12,0.60
2006,05,07,19,13,3.60
2006,05,07,19,14,5.90
2006,05,07,19,15,3.30
2006,05,07,19,16,4.00
2006,05,07,19,17,11.40
2006,05,07,19,18,9.60
2006,05,07,19,19,9.60
2006,05,07,19,20,3.00
2006,05,07,19,21,1.80
2006,05,07,19,22,0.00
2006,05,07,19,23,9.30
2006,05,07,19,24,3.80
2006,05,07,19,25,7.80
2006,05,07,19,26,2.40
2006,05,07,19,27,2.50
2006,05,07,19,28,5.80
2006,05,07,19,29,9.70
2006,05,07,19,30,8.70
2006,05,07,19,31,4.10
2006,05,07,19,32,0.00
2006,05,07,19,33,0.40
2006,05,07,19,34,3.90
2006,05,07,19,35,0.00
2006,05,07,19,36,0.00
2006,05,07,19,37,0.00
2006,05,07,19,38,0.00
2006,05,07,19,39,0.00
2006,05,07,19,40,0.00
2006,05,07,19,41,1.10
2006,05,07,19,42,0.00
2006,05,07,19,43,0.00
2006,05,07,19,44,0.00
2006,05,07,19,45,1.10
2006,05,07,19,46,1.10
2006,05,07,19,47,2.10
2006,05,07,19,48,2.90
2006,05,07,19,49,0.60
2006,05,07,19,50,0.40
2006,05,07,19,51,0.50
2006,05,07,19,52,0.00
2006,05,07,19,53,0.00
2006,05,07,19,54,0.00
2006,05,07,19,55,0.10
2006,05,07,19,56,0.30
2006,05,07,19,57,0.00
2006,05,07,19,58,0.00
2006,05,07,19,59,0.00
2006,05,07,20,00,0.00
2006,05,07,20,01,0.00
2006,05,07,20,02,0.00
2006,05,07,20,03,0.00
2006,05,07,20,04,0.00
2006,05,07,20,05,0.00
2006,05,07,20,06,0.00
2006,05,07,20,07,1.30
2006,05,07,20,08,0.00
2006,05,07,20,09,0.00
2006,05,07,20,10,0.00
2006,05,07,20,11,0.00
2006,05,07,20,12,0.00
2006,05,07,20,13,0.00
2006,05,07,20,14,0.00
2006,05,07,20,15,0.00
2006,05,07,20,16,0.00
2006,05,07,20,17,0.00
2006,05,07,20,18,0.00
2006,05,07,20,19,0.00
2006,05,07,20,20,0.00
2006,05,07,20,21,0.00
2006,05,07,20,22,0.00
2006,05,07,20,23,0.00
2006,05,07,20,24,0.00
2006,05,07,20,25,0.00
2006,05,07,20,26,4.70
2006,05,07,20,27,4.80
2006,05,07,20,28,2.90
2006,05,07,20,29,0.00
2006,05,07,20,30,0.00
2006,05,07,20,31,0.00
2006,05,07,20,32,0.00
2006,05,07,20,33,0.00
2006,05,07,20,34,0.00
2006,05,07,20,35,0.00
2006,05,07,20,36,0.00
2006,05,07,20,37,0.00
2006,05,07,20,38,0.10
2006,05,07,20,39,0.60
2006,05,07,20,40,0.00
2006,05,07,20,41,0.00
2006,05,07,20,42,0.00
2006,05,07,20,43,0.00
2006,05,07,20,44,0.20
2006,05,07,20,45,0.10
2006,05,07,20,46,0.00
2006,05,07,20,47,0.00
2006,05,07,20,48,0.10
2006,05,07,20,49,1.60
2006,05,07,20,50,1.60
2006,05,07,20,51,1.60
2006,05,07,20,52,1.60
2006,05,07,20,53,1.60
2006,05,07,20,54,1.50
2006,05,07,20,55,0.00
2006,05,07,20,56,0.00
2006,05,07,20,57,0.00
2006,05,07,20,58,0.00
2006,05,07,20,59,0.00
2006,05,07,21,00,2.30
2006,05,07,21,01,0.30
2006,05,07,21,02,0.00
2006,05,07,21,03,0.00
2006,05,07,21,04,0.00
2006,05,07,21,05,0.00
2006,05,07,21,06,2.10
2006,05,07,21,07,3.20
2006,05,07,21,08,3.20
2006,05,07,21,09,3.20
2006,05,07,21,10,0.00
2006,05,07,21,11,0.00
2006,05,07,21,12,0.00
2006,05,07,21,13,0.00
2006,05,07,21,14,0.00
2006,05,07,21,15,0.00
2006,05,07,21,16,0.00
2006,05,07,21,17,0.00
2006,05,07,21,18,0.00
2006,05,07,21,19,0.00
2006,05,07,21,20,0.00
2006,05,07,21,25,0.00
2006,05,07,21,26,0.00
2006,05,07,21,27,0.00
2006,05,07,21,28,0.00
2006,05,07,21,29,0.70
2006,05,07,21,30,8.60
2006,05,07,21,31,1.00
2006,05,07,21,32,2.30
2006,05,07,21,33,0.00
2006,05,07,21,34,0.60
2006,05,07,21,35,0.20
2006,05,07,21,36,0.00
2006,05,07,21,37,0.10
2006,05,07,21,38,0.00
2006,05,07,21,39,0.00
2006,05,07,21,40,0.00
2006,05,07,21,41,0.00
2006,05,07,21,42,0.00
2006,05,07,21,43,0.00
2006,05,07,21,44,0.00
2006,05,07,21,45,0.00
2006,05,07,21,46,0.00
2006,05,07,21,47,0.00
2006,05,07,21,48,0.00
2006,05,07,21,49,0.00
2006,05,07,21,50,0.00
2006,05,07,21,51,0.00
2006,05,07,21,52,0.00
2006,05,07,21,53,0.00
2006,05,07,21,54,0.00
2006,05,07,21,55,0.00
2006,05,07,21,56,0.00
2006,05,07,21,57,0.00
2006,05,07,21,58,0.00
2006,05,07,21,59,0.00
2006,05,07,22,00,0.30
2006,05,07,22,01,0.00
2006,05,07,22,02,0.70
2006,05,07,22,03,5.80
2006,05,07,22,04,5.60
2006,05,07,22,05,2.50
2006,05,07,22,06,15.10
2006,05,07,22,07,3.50
2006,05,07,22,08,2.50
2006,05,07,22,09,1.30
2006,05,07,22,10,1.00
2006,05,07,22,11,0.50
2006,05,07,22,12,8.70
2006,05,07,22,13,8.80
2006,05,07,22,14,2.30
2006,05,07,22,15,0.50
2006,05,07,22,16,0.90
2006,05,07,22,17,1.30
2006,05,07,22,18,3.20
2006,05,07,22,19,5.50
2006,05,07,22,20,3.90
2006,05,07,22,21,0.30
2006,05,07,22,22,6.40
2006,05,07,22,23,4.20
2006,05,07,22,24,0.00
2006,05,07,22,25,4.20
2006,05,07,22,26,4.90
2006,05,07,22,27,7.50
2006,05,07,22,28,4.30
2006,05,07,22,29,4.20
2006,05,07,22,30,1.40
2006,05,07,22,31,8.40
2006,05,07,22,32,3.60
2006,05,07,22,33,5.20